Regional Weather Roundup
Issued by NWS

Home | Current Version | Previous Version | Graphics & Text | Print | Product List | Glossary On
Versions: 1 2 3 4 5 6 7 8 9 10 11 12 13 14 15 16 17 18 19 20 21 22 23 24 25 26 27 28 29 30 31 32 33 34 35 36 37 38 39 40 41 42 43 44 45 46 47 48 49 50
000
ASUS43 KMPX 242001
RWRMN
WEATHER ROUNDUP FOR MINNESOTA
NATIONAL WEATHER SERVICE TWIN CITIES/CHANHASSEN MN
300 PM CDT SAT JUN 24 2017


NOTE: "FAIR" INDICATES FEW OR NO CLOUDS BELOW 12,000 FEET WITH NO
SIGNIFICANT WEATHER AND/OR OBSTRUCTIONS TO VISIBILITY. N/A MEANS
CURRENT SKY AND/OR WEATHER CONDITIONS ARE NOT AVAILABLE.

MNZ060>063-068>070-242100-
   Twin Cities Metro

CITY           SKY/WX    TMP DP  RH WIND       PRES   REMARKS
TWIN CITIES    TSTM      55  49  80 W15G25    30.04R
ST PAUL        TSTM      55  46  71 W29G51    30.04R
CRYSTAL        LGT RAIN  54  45  71 W9G22     30.02S
BLAINE         LGT RAIN  54  46  76 W10       30.04R
LAKEVILLE      PTSUNNY   52  46  82 W10G28    30.05R
EDEN PRAIRIE   CLOUDY    58  50  75 NW12G22   30.03R
SOUTH ST PAUL  MOSUNNY   61  42  50 NW25G36   30.02R
LAKE ELMO      PTSUNNY   63  43  48 W32G41    30.03R
$$
MNZ001>005-007-008-013>017-022>024-027-028-242100-
   Northwest Minnesota

CITY           SKY/WX    TMP DP  RH WIND       PRES   REMARKS
BEMIDJI        MOSUNNY   60  44  55 W20       30.00R
HALLOCK        CLOUDY    54  52  94 NW20G28   30.03R FOG
ROSEAU         MOSUNNY   61  52  72 W5        29.99S
WARROAD        CLOUDY    57  52  82 NW6       29.99R
CROOKSTON      CLOUDY    54  54 100 NW22G30   30.04S
FOSSTON        CLOUDY    55  48  76 W16       30.03S HAZE
DETROIT LAKES  PTSUNNY   54  46  76 NW14G25   30.07R
MOORHEAD       PTSUNNY   61  45  55 NW18      30.07S
PARK RAPIDS    MOSUNNY   62  43  49 NW18      30.01S
MAHNOMEN       CLOUDY    56  50  81 W13G18    30.04S
$$
MNZ006-009>011-018-025>026-242100-
   North Central Minnesota

CITY           SKY/WX    TMP DP  RH WIND       PRES   REMARKS
BAUDETTE       CLOUDY    61  50  67 N10       29.97R
FLAG ISLAND    CLOUDY    57  50  77 NW8       29.96S
INTL FALLS     CLOUDY    62  47  57 W8        29.93S
WASKISH        CLOUDY    61  48  63 W12       29.98R
BIG FORK       SUNNY     63  50  63 W7        29.96S
LONGVILLE      SUNNY     63  46  55 W9G16     29.99S
GRAND RAPIDS   CLOUDY    60  45  57 NW14      29.98S
CRANE LAKE     CLOUDY    57  46  67 W6        29.95R
ORR            CLOUDY    57  46  67 CALM      29.92R
COOK           CLOUDY    57  48  72 W10       29.95S
WALKER         MOCLDY    60  46  59 W12G18    30.00S
$$
MNZ012-019>021-037-242100-
   Northeast Minnesota

CITY           SKY/WX    TMP DP  RH WIND       PRES   REMARKS
DULUTH         PTSUNNY   60  47  61 NW13G18   29.95R
ELY            CLOUDY    61  46  59 W15       29.91S
HIBBING        CLOUDY    57  47  69 NW15      29.96R
EVELETH        LGT RAIN  55  48  77 NW5       29.97R
DULUTH HARBOR  CLOUDY    63  48  59 SW14      29.94F
TWO HARBORS    CLOUDY    66  52  59 NW8G20    29.90F
SILVER BAY     PTSUNNY   63  48  59 W3        29.89S
GRAND MARAIS     N/A     51  51 100 W6        29.88S
G MARAIS ARPRT RAIN      52  48  87 CALM      29.90S
$$
MNZ029>031-032-039>041-046>048-054>057-064-242100-
   West Central Minnesota

CITY           SKY/WX    TMP DP  RH WIND       PRES   REMARKS
FERGUS FALLS   CLOUDY    61  46  59 NW22      30.05S
WHEATON        MOSUNNY   64  41  42 NW18      30.09F
MORRIS         PTSUNNY   61  50  67 NW12      30.08R
ALEXANDRIA     PTSUNNY   58  45  62 NW21G29   30.07R
ELBOW LAKE     LGT RAIN  55  49  81 NW8       30.08S
WADENA         PTSUNNY   54  48  82 NW9       30.03S
GLENWOOD       LGT RAIN  55  48  76 NW16G28   30.07R
APPLETON       MOSUNNY   64  39  39 NW17G26   30.08S
BENSON         PTSUNNY   63  43  48 N18G25    30.09R
ORTONVILLE     MOSUNNY   63  39  42 NW16G23   30.09S
MADISON        MOSUNNY   66  43  42 NW18G29   30.09S
WILLMAR        FAIR      63  45  51 NW22      30.07S
$$
MNZ033>034-036-042>043-049>051-058-059-242100-
   Central Minnesota

CITY           SKY/WX    TMP DP  RH WIND       PRES   REMARKS
ST CLOUD       MOSUNNY   63  44  50 NW17G23   30.02S
SAUK CENTRE    MOCLDY    59  44  59 W16G24    30.05R
PAYNESVILLE    MOSUNNY   60  50  69 W15       30.05S
AITKIN         MOSUNNY   63  45  51 NW7       29.96F
PINE RIVER     MOSUNNY   61  46  59 W7        30.03F
BRAINERD       PTSUNNY   63  42  46 NW13G20   30.00S
STAPLES        RAIN      50  46  87 NW8G21    30.04R
LONG PRAIRIE   LGT RAIN  54  50  87 W15       30.05R
LITTLE FALLS   PTSUNNY   61  41  48 W14G21    30.02S
LITCHFIELD     DRIZZLE   61  48  63 NW12G18   30.05S
BUFFALO        CLOUDY    57  48  72 W9        30.04F
MAPLE LAKE     CLOUDY    61  49  65 W12       30.04F
HUTCHINSON     CLOUDY    62  45  53 NW15G25   30.05F
$$
MNZ037-044-045-052-053-242100-
   East Central Minnesota

CITY           SKY/WX    TMP DP  RH WIND       PRES   REMARKS
PRINCETON      PTSUNNY   64  45  48 W12G18    30.01S
MORA           MOSUNNY   59  43  55 W12G20    30.00S
CAMBRIDGE      PTSUNNY   66  46  48 W13G21    29.98S
RUSH CITY      HVY RAIN  63  45  51 NW8G17    29.99S
MOOSE LAKE     CLOUDY    57  46  67 N6        29.96F
HINCKLEY       CLOUDY    59  45  58 W10       29.98S
CLOQUET        CLOUDY    61  43  51 W8        29.96S
MCGREGOR       CLOUDY    61  45  55 N16G28    29.98R
$$
MNZ071>073-080-081-089-090-097-098-242100-
   Southwest Minnesota

CITY           SKY/WX    TMP DP  RH WIND       PRES   REMARKS
MONTEVIDEO     MOSUNNY   66  43  42 N15G29    30.08S
GRANITE FALLS  PTSUNNY   67  43  41 W21G31    30.09S
CANBY          PTSUNNY   64  42  44 W14G25    30.12R
MARSHALL       PTSUNNY   63  40  42 NW22G28   30.09S
REDWOOD FALLS  MOSUNNY   65  39  38 NW23G33   30.06R
OLIVIA         PTSUNNY   63  41  45 NW21G28   30.06R
PIPESTONE      MOSUNNY   64  39  39 NW24G35   30.12S
WINDOM         MOSUNNY   66  39  37 NW23G30   30.09R
WORTHINGTON    PTSUNNY   65  42  43 NW23G35   30.11R
JACKSON        PTSUNNY   68  39  34 NW20G36   30.08R
TRACY          MOSUNNY   66  42  41 NW20G29   30.10S
SLAYTON        PTSUNNY   63  19  18 NW25G33   30.11R HAZE
$$
MNZ065>067-074>077-082>085-091>093-242100-
   South Central Minnesota

CITY           SKY/WX    TMP DP  RH WIND       PRES   REMARKS
MANKATO        PTSUNNY   66  44  45 NW17G26   30.04
NEW ULM        MOSUNNY   66  41  39 NW22G32   30.05S
ST JAMES       MOSUNNY   66  45  45 W20G25    30.07R
FAIRMONT       PTSUNNY   69  43  38 NW24G32   30.05R
GLENCOE        CLOUDY    56  56  99 N10       30.04F
FARIBAULT      PTSUNNY   64  45  48 W5        30.02F
OWATONNA       MOSUNNY   64  46  52 W7        30.02F
WASECA         PTSUNNY   63  45  51 W8        30.04S
ALBERT LEA     PTSUNNY   61  48  63 CALM      30.03F
$$
MNZ078>079-086>088-094>096-242100-
   Southeast Minnesota

CITY           SKY/WX    TMP DP  RH WIND       PRES   REMARKS
ROCHESTER      LGT RAIN  58  48  69 W10G25    30.05S
RED WING       PTSUNNY   66  37  34 W12G22    30.00F
STANTON        PTSUNNY   63  43  49 NW8       30.00F
DODGE CENTER   CLOUDY    61  46  59 SW12      30.04S
WINONA         PTSUNNY   66  43  42 NW12G22   30.02S
AUSTIN         LGT RAIN  57  50  77 SW3       30.05R
PRESTON        MOSUNNY   64  43  46 W17       30.04F
$$
ABBREVIATIONS USED IN REMARKS
   TC - TEMPERATURES IN CELSIUS
  WCI - WIND CHILL INDEX
   HX - HEAT INDEX
  VSB - VISIBILITY
$$




USA.gov is the U.S. government's official web portal to all federal, state and local government web resources and services.